Tracking 25953 objects as of 16-Aug-2022
HD Live streaming from Space Station
objects crossing your sky now

SL-12 R/B(AUX MOTOR)

Track SL-12 R/B(AUX MOTOR) now!
10-day predictions


NORAD ID: 19537
Int'l Code: 1988-085G
Perigee: 459.7 km
Apogee: 18,433.4 km
Inclination: 64.7 °
Period: 330.0 minutes
Semi major axis: 15817 km
RCS: 0.8248 m2 (medium)
Launch date: September 16, 1988
Source: Commonwealth of Independent States (former USSR) (CIS)
Launch site: TYURATAM MISSILE AND SPACE COMPLEX (TTMTR)

Note: This is a ROCKET BODY
aabbcc
Your satellite tracking list
Your tracking list is empty




NASA's NSSDC Master Catalog

Two Line Element Set (TLE):
1 19537U 88085G   22228.23603462  .00000177  00000-0  22098-3 0  9995
2 19537  64.7180 120.8450 5681584 148.5207 263.7359  4.36410473533623
Source of the keplerian elements: AFSPC